This is the latest recevied weather packets stored in our database for station/object DC1MAK-13. If no packets are shown the sender has not sent any weather packets the latest 10 day(s).
| Time | Temp. | Humidity | Pressure | Rain* | Wind** | Luminosity | Snow |
|---|---|---|---|---|---|---|---|
| 1787857978 | 22.78° C | 83% | 983.7 hPa | - | - | - | - |
| 1787857681 | 22.78° C | 83% | 983.6 hPa | - | - | - | - |
| 1787857377 | 22.78° C | 83% | 983.5 hPa | - | - | - | - |
| 1787857371 | 22.78° C | 83% | 983.5 hPa | - | - | - | - |
| 1787857074 | 23.33° C | 82% | 983.6 hPa | - | - | - | - |
| 1787857068 | 23.33° C | 82% | 983.6 hPa | - | - | - | - |
| 1787856770 | 23.33° C | 82% | 983.4 hPa | - | - | - | - |
| 1787856764 | 23.33° C | 82% | 983.4 hPa | - | - | - | - |
| 1787856461 | 23.33° C | 82% | 983.3 hPa | - | - | - | - |
| 1787856167 | 23.33° C | 81% | 983.3 hPa | - | - | - | - |
| 1787856157 | 23.33° C | 81% | 983.3 hPa | - | - | - | - |
| 1787855860 | 23.33° C | 82% | 983.3 hPa | - | - | - | - |
| 1787855556 | 23.33° C | 79% | 983.4 hPa | - | - | - | - |
| 1787855253 | 23.89° C | 77% | 983.4 hPa | - | - | - | - |
| 1787855247 | 23.89° C | 77% | 983.4 hPa | - | - | - | - |
| 1787854944 | 24.44° C | 75% | 983.3 hPa | - | - | - | - |
| 1787854647 | 24.44° C | 71% | 983.3 hPa | - | - | - | - |
| 1787854347 | 25° C | 69% | 983.2 hPa | - | - | - | - |
| 1787854337 | 25° C | 69% | 983.2 hPa | - | - | - | - |
| 1787854039 | 25° C | 69% | 983.2 hPa | - | - | - | - |
| 1787854033 | 25° C | 69% | 983.2 hPa | - | - | - | - |
| 1787853736 | 25° C | 69% | 983.3 hPa | - | - | - | - |
| 1787853730 | 25° C | 69% | 983.3 hPa | - | - | - | - |
| 1787853432 | 25.56° C | 67% | 983.3 hPa | - | - | - | - |
| 1787853427 | 25.56° C | 67% | 983.3 hPa | - | - | - | - |
* Rain since midnight (hover to see other rain measurements)
** Current wind speed in m/s (hover to see current wind gust speed)